Change the Weather History Date:

Saturday, November 9, 2013

  Actual Average Record
Temperature  
Mean Temperature 42 °F -  
Max Temperature 53 °F 54 °F 69 °F (2006)
Min Temperature 30 °F 38 °F 30 °F (2003)
Degree Days  
Heating Degree Days 24    
Moisture  
Dew Point 30 °F    
Average Humidity 68    
Maximum Humidity 93    
Minimum Humidity 41    
Precipitation  
Precipitation 0.00 in - - ()
Sea Level Pressure  
Sea Level Pressure 30.25 in    
Wind  
Wind Speed 2 mph (SSW)    
Max Wind Speed 13 mph    
Max Gust Speed 20 mph    
Visibility 10 miles    
Events      
Averages and records for this station are not official NWS values.
T = Trace of Precipitation, MM = Missing Value Source: NWS Daily Summary

Daily Weather History Graph

Daily Weather History Graph

Search for Another Location

Airport or City:

Trip Planner

Search our weather history database for the weather conditions in past years. The results will help you decide how hot, cold, wet, or windy it might be!

Date:

Astronomy

Nov. 09, 2013 Rise Set
Actual Time 6:42 AM EST 4:55 PM EST
Civil Twilight 6:14 AM EST 5:24 PM EST
Nautical Twilight 5:42 AM EST 5:56 PM EST
Astronomical Twilight 5:10 AM EST 6:27 PM EST
Moon 12:18 PM EST (11/9) 11:22 PM EST (11/9)
Length of Visible Light 11h 09m
Length of Day
10h 13m
Waxing Crescent, 44% of the Moon is Illuminated
Nov 9
Waxing Crescent
Nov 10
First Quarter
Nov 17
Full
Nov 25
Last Quarter
Dec 2
New

Hourly Weather History & Observations

Time (EST) Temp. Windchill Dew Point Humidity Pressure Visibility Wind Dir Wind Speed Gust Speed Precip Events Conditions
12:15 AM 35.6 °F - 28.4 °F 75% 30.33 in 10.0 mi Calm Calm - N/A   Clear
12:36 AM 33.8 °F - 28.4 °F 81% 30.33 in 10.0 mi Calm Calm - N/A   Clear
12:54 AM 33.8 °F - 28.4 °F 81% 30.33 in 10.0 mi Calm Calm - N/A   Clear
1:15 AM 33.8 °F - 28.4 °F 81% 30.33 in 10.0 mi Calm Calm - N/A   Clear
1:36 AM 33.8 °F - 28.4 °F 81% 30.34 in 10.0 mi Calm Calm - N/A   Clear
1:57 AM 33.8 °F - 28.4 °F 81% 30.33 in 10.0 mi Calm Calm - N/A   Clear
2:15 AM 32.0 °F - 28.4 °F 87% 30.33 in 10.0 mi Calm Calm - N/A   Clear
2:36 AM 33.8 °F - 30.2 °F 87% 30.33 in 10.0 mi Calm Calm - N/A   Clear
2:57 AM 32.0 °F 28.7 °F 28.4 °F 87% 30.33 in 10.0 mi SW 3.5 mph - N/A   Clear
3:15 AM 32.0 °F - 28.4 °F 87% 30.33 in 10.0 mi Calm Calm - N/A   Clear
3:36 AM 32.0 °F - 30.2 °F 93% 30.33 in 10.0 mi Calm Calm - N/A   Clear
3:57 AM 32.0 °F - 28.4 °F 87% 30.33 in 10.0 mi Calm Calm - N/A   Clear
4:15 AM 32.0 °F - 28.4 °F 87% 30.34 in 10.0 mi Calm Calm - N/A   Clear
4:36 AM 32.0 °F - 28.4 °F 87% 30.34 in 10.0 mi Calm Calm - N/A   Clear
4:57 AM 32.0 °F - 30.2 °F 93% 30.34 in 10.0 mi Calm Calm - N/A   Clear
5:15 AM 32.0 °F 28.7 °F 28.4 °F 87% 30.35 in 10.0 mi West 3.5 mph - N/A   Clear
5:30 AM 32.0 °F 28.7 °F 28.4 °F 87% 30.36 in 10.0 mi WSW 3.5 mph - N/A   Clear
5:45 AM 33.8 °F - 28.4 °F 81% 30.36 in 10.0 mi Calm Calm - N/A   Partly Cloudy
6:45 AM 30.2 °F 26.7 °F 26.6 °F 86% 30.35 in 10.0 mi WNW 3.5 mph - N/A   Partly Cloudy
7:45 AM 33.8 °F - 30.2 °F 87% 30.36 in 10.0 mi Calm Calm - N/A   Partly Cloudy
8:50 AM 42.8 °F - 30.2 °F 61% 30.36 in 10.0 mi Calm Calm - N/A   Partly Cloudy
9:45 AM 46.4 °F - 30.2 °F 53% 30.35 in 10.0 mi Calm Calm - N/A   Partly Cloudy
10:45 AM 50.0 °F - 28.4 °F 43% 30.33 in 10.0 mi SW 5.8 mph - N/A   Partly Cloudy
11:45 AM 51.8 °F - 28.4 °F 41% 30.29 in 10.0 mi SW 5.8 mph - N/A   Scattered Clouds
12:52 PM 53.6 °F - 30.2 °F 41% 30.25 in 10.0 mi SSW 9.2 mph - N/A   Scattered Clouds
1:45 PM 53.6 °F - 35.6 °F 51% 30.21 in 10.0 mi SE 10.4 mph - N/A   Clear
2:53 PM 53.6 °F - 35.6 °F 51% 30.18 in 10.0 mi SE 12.7 mph 19.6 mph N/A   Clear
3:52 PM 53.6 °F - 33.8 °F 47% 30.16 in 10.0 mi SSE 12.7 mph 19.6 mph N/A   Scattered Clouds
4:45 PM 51.8 °F - 30.2 °F 44% 30.15 in 10.0 mi South 8.1 mph - N/A   Scattered Clouds
5:55 PM 51.8 °F - 33.8 °F 50% 30.14 in 10.0 mi SSE 9.2 mph - N/A   Scattered Clouds
6:45 PM 51.8 °F - 32.0 °F 47% 30.12 in 10.0 mi South 10.4 mph - N/A   Scattered Clouds
7:50 PM 51.8 °F - 32.0 °F 47% 30.10 in 10.0 mi South 8.1 mph - N/A   Scattered Clouds
8:50 PM 51.8 °F - 32.0 °F 47% 30.09 in 10.0 mi South 9.2 mph - N/A   Scattered Clouds
10:18 PM 50.0 °F - 32.0 °F 50% 30.07 in 10.0 mi SSW 3.5 mph - N/A   Clear
10:39 PM 48.2 °F - 32.0 °F 54% 30.06 in 10.0 mi SSW 4.6 mph - N/A   Clear
10:57 PM 48.2 °F - 32.0 °F 54% 30.06 in 10.0 mi SSW 3.5 mph - N/A   Clear
11:18 PM 48.2 °F - 32.0 °F 54% 30.05 in 10.0 mi SW 3.5 mph - N/A   Clear
11:39 PM 48.2 °F - 32.0 °F 54% 30.05 in 10.0 mi SSW 3.5 mph - N/A   Clear
11:54 PM 46.4 °F 45.2 °F 32.0 °F 57% 30.05 in 10.0 mi SW 3.5 mph - N/A   Clear